Kremmling, CO

4:42 AM MDT on April 27, 2017 (GMT -0600)
Kremmling

Weather History for K20V - June, 2013

Change the Weather History Date:

Friday, June 7, 2013

  Actual Average Record
Temperature  
Mean Temperature 57 °F -  
Max Temperature 77 °F - 87 °F (2004)
Min Temperature 37 °F - 33 °F (2008)
Degree Days  
Heating Degree Days 8    
Month to date heating degree days  
Cooling Degree Days 0    
Month to date cooling degree days  
Growing Degree Days 7 (Base 50)    
Moisture  
Dew Point 32 °F    
Average Humidity 44    
Maximum Humidity 81    
Minimum Humidity 10    
Precipitation  
Precipitation 0.00 in - 0.00 in (2017)
Sea Level Pressure  
Sea Level Pressure 30.16 in    
Wind  
Wind Speed 2 mph (WNW)    
Max Wind Speed 16 mph    
Max Gust Speed 29 mph    
Visibility 10 miles    
Events Rain    
T = Trace of Precipitation, MM = Missing Value Source: NWS Daily Summary

Daily Weather History Graph

Daily Weather History Graph

Search for Another Location

Airport or City:

Trip Planner

Search our weather history database for the weather conditions in past years. The results will help you decide how hot, cold, wet, or windy it might be!

Date:

Astronomy

Jun. 07, 2013 Rise Set
Actual Time 5:36 AM MDT 8:32 PM MDT
Civil Twilight 5:04 AM MDT 9:05 PM MDT
Nautical Twilight 4:22 AM MDT 9:46 PM MDT
Astronomical Twilight 3:35 AM MDT 10:34 PM MDT
Moon 5:01 AM MDT (6/7) 7:48 PM MDT (6/7)
Length of Visible Light 16h 01m
Length of Day
14h 55m
Waning Crescent, 1% of the Moon is Illuminated
Jun 7
Waning Crescent
Jun 8
New
Jun 16
First Quarter
Jun 23
Full
Jun 29
Last Quarter

Hourly Weather History & Observations

Time (MDT) Temp. Dew Point Humidity Pressure Visibility Wind Dir Wind Speed Gust Speed Precip Events Conditions
12:36 AM 44.6 °F 33.8 °F 66% 30.24 in 10.0 mi Calm Calm - N/A   Clear
12:56 AM 42.8 °F 32.0 °F 66% 30.24 in 10.0 mi Calm Calm - N/A   Clear
1:16 AM 42.8 °F 32.0 °F 66% 30.24 in 10.0 mi Calm Calm - N/A   Clear
1:36 AM 41.0 °F 32.0 °F 70% 30.24 in 10.0 mi Calm Calm - N/A   Clear
1:56 AM 41.0 °F 32.0 °F 70% 30.24 in 10.0 mi Calm Calm - N/A   Clear
2:16 AM 41.0 °F 32.0 °F 70% 30.24 in 10.0 mi Calm Calm - N/A   Clear
2:36 AM 37.4 °F 32.0 °F 81% 30.24 in 10.0 mi Calm Calm - N/A   Clear
2:56 AM 39.2 °F 32.0 °F 75% 30.24 in 10.0 mi Calm Calm - N/A   Clear
3:16 AM 39.2 °F 32.0 °F 75% 30.24 in 10.0 mi Calm Calm - N/A   Clear
3:36 AM 39.2 °F 32.0 °F 75% 30.24 in 10.0 mi Calm Calm - N/A   Clear
3:56 AM 39.2 °F 32.0 °F 75% 30.24 in 10.0 mi Calm Calm - N/A   Clear
4:16 AM 39.2 °F 32.0 °F 75% 30.24 in 10.0 mi Calm Calm - N/A   Clear
4:36 AM 37.4 °F 32.0 °F 81% 30.24 in 10.0 mi Calm Calm - N/A   Clear
4:56 AM 37.4 °F 32.0 °F 81% 30.24 in 10.0 mi Calm Calm - N/A   Clear
5:16 AM 37.4 °F 32.0 °F 81% 30.24 in 10.0 mi Calm Calm - N/A   Clear
5:35 AM 37.4 °F 32.0 °F 81% 30.25 in 10.0 mi Calm Calm - N/A   Scattered Clouds
5:56 AM 37.4 °F 32.0 °F 81% 30.25 in 10.0 mi Calm Calm - N/A   Mostly Cloudy
6:16 AM 37.4 °F 32.0 °F 81% 30.25 in 10.0 mi Calm Calm - N/A   Mostly Cloudy
6:36 AM 37.4 °F 32.0 °F 81% 30.25 in 10.0 mi Calm Calm - N/A   Clear
6:56 AM 41.0 °F 32.0 °F 70% 30.25 in 10.0 mi Calm Calm - N/A   Clear
7:16 AM 42.8 °F 33.8 °F 70% 30.25 in 10.0 mi Calm Calm - N/A   Scattered Clouds
7:36 AM 48.2 °F 35.6 °F 62% 30.25 in 10.0 mi Calm Calm - N/A   Scattered Clouds
7:56 AM 50.0 °F 35.6 °F 58% 30.24 in 10.0 mi Calm Calm - N/A   Scattered Clouds
8:15 AM 50.0 °F 33.8 °F 54% 30.24 in 10.0 mi Calm Calm - N/A   Clear
8:36 AM 51.8 °F 35.6 °F 54% 30.24 in 10.0 mi Calm Calm - N/A   Clear
8:56 AM 53.6 °F 33.8 °F 47% 30.23 in 10.0 mi Calm Calm - N/A   Scattered Clouds
9:16 AM 55.4 °F 35.6 °F 47% 30.22 in 10.0 mi Calm Calm - N/A   Scattered Clouds
9:36 AM 57.2 °F 33.8 °F 41% 30.22 in 10.0 mi Calm Calm - N/A   Scattered Clouds
9:55 AM 59.0 °F 33.8 °F 39% 30.21 in 10.0 mi Calm Calm - N/A   Clear
10:16 AM 60.8 °F 33.8 °F 36% 30.20 in 10.0 mi Calm Calm - N/A   Clear
10:36 AM 62.6 °F 33.8 °F 34% 30.19 in 10.0 mi Calm Calm - N/A   Clear
10:56 AM 68.0 °F 35.6 °F 30% 30.18 in 10.0 mi Calm Calm - N/A   Scattered Clouds
11:16 AM 68.0 °F 35.6 °F 30% 30.17 in 10.0 mi NNW 3.5 mph - N/A   Scattered Clouds
11:36 AM 66.2 °F 32.0 °F 28% 30.17 in 10.0 mi West 3.5 mph - N/A   Scattered Clouds
11:56 AM 66.2 °F 35.6 °F 32% 30.17 in 10.0 mi Calm Calm - N/A Rain Light Rain
12:16 PM 64.4 °F 41.0 °F 42% 30.17 in 10.0 mi SW 4.6 mph - N/A Rain Light Rain
12:36 PM 59.0 °F 41.0 °F 51% 30.19 in 10.0 mi WSW 16.1 mph 28.8 mph N/A Rain Light Rain
12:56 PM 59.0 °F 42.8 °F 55% 30.18 in 10.0 mi South 10.4 mph - N/A Rain Light Rain
1:16 PM 66.2 °F 39.2 °F 37% 30.16 in 10.0 mi South 9.2 mph - N/A   Overcast
1:36 PM 69.8 °F 37.4 °F 31% 30.14 in 10.0 mi South 8.1 mph - N/A   Scattered Clouds
1:56 PM 73.4 °F 35.6 °F 25% 30.14 in 10.0 mi South 9.2 mph - N/A   Scattered Clouds
2:16 PM 73.4 °F 32.0 °F 22% 30.12 in 10.0 mi SW 5.8 mph 17.3 mph N/A   Scattered Clouds
2:36 PM 77.0 °F 28.4 °F 17% 30.12 in 10.0 mi SW 10.4 mph - N/A   Clear
2:56 PM 71.6 °F 28.4 °F 20% 30.12 in 10.0 mi WNW 6.9 mph - N/A   Scattered Clouds
3:16 PM 75.2 °F 17.6 °F 11% 30.11 in 10.0 mi NW 11.5 mph - N/A   Scattered Clouds
3:36 PM 77.0 °F 15.8 °F 10% 30.11 in 10.0 mi North 13.8 mph 20.7 mph N/A   Scattered Clouds
3:56 PM 73.4 °F 21.2 °F 14% 30.11 in 10.0 mi NW 11.5 mph 19.6 mph N/A   Scattered Clouds
4:16 PM 77.0 °F 26.6 °F 16% 30.10 in 10.0 mi NNW 13.8 mph 19.6 mph N/A   Scattered Clouds
4:36 PM 77.0 °F 23.0 °F 13% 30.09 in 10.0 mi NW 16.1 mph 20.7 mph N/A   Scattered Clouds
4:56 PM 73.4 °F 23.0 °F 15% 30.09 in 10.0 mi NW 13.8 mph 21.9 mph N/A   Scattered Clouds
5:16 PM 73.4 °F 24.8 °F 16% 30.09 in 10.0 mi NW 10.4 mph 18.4 mph N/A   Scattered Clouds
5:36 PM 73.4 °F 24.8 °F 16% 30.08 in 10.0 mi NW 11.5 mph 16.1 mph N/A   Scattered Clouds
5:56 PM 73.4 °F 26.6 °F 18% 30.08 in 10.0 mi NW 9.2 mph - N/A   Clear
6:16 PM 73.4 °F 26.6 °F 18% 30.07 in 10.0 mi NW 10.4 mph 17.3 mph N/A   Clear
6:36 PM 73.4 °F 26.6 °F 18% 30.07 in 10.0 mi NW 11.5 mph - N/A   Clear
6:56 PM 71.6 °F 28.4 °F 20% 30.07 in 10.0 mi NW 8.1 mph - N/A   Clear
7:16 PM 69.8 °F 28.4 °F 21% 30.08 in 10.0 mi WNW 6.9 mph - N/A   Scattered Clouds
7:35 PM 69.8 °F 26.6 °F 20% 30.07 in 10.0 mi WNW 8.1 mph - N/A   Clear
7:56 PM 69.8 °F 28.4 °F 21% 30.07 in 10.0 mi WNW 3.5 mph - N/A   Scattered Clouds
8:16 PM 68.0 °F 32.0 °F 26% 30.07 in 10.0 mi West 3.5 mph - N/A   Mostly Cloudy
8:36 PM 62.6 °F 33.8 °F 34% 30.07 in 10.0 mi West 4.6 mph - N/A   Scattered Clouds
8:55 PM 62.6 °F 32.0 °F 32% 30.08 in 10.0 mi WNW 3.5 mph - N/A   Mostly Cloudy
9:16 PM 64.4 °F 28.4 °F 26% 30.07 in 10.0 mi West 5.8 mph - N/A   Overcast
9:36 PM 62.6 °F 30.2 °F 30% 30.07 in 10.0 mi West 4.6 mph - N/A   Mostly Cloudy
9:56 PM 60.8 °F 35.6 °F 39% 30.07 in 10.0 mi West 3.5 mph - N/A   Mostly Cloudy
10:16 PM 60.8 °F 32.0 °F 34% 30.07 in 10.0 mi Calm Calm - N/A   Mostly Cloudy
10:35 PM 59.0 °F 32.0 °F 36% 30.07 in 10.0 mi Calm Calm - N/A   Overcast
10:55 PM 60.8 °F 32.0 °F 34% 30.06 in 10.0 mi Calm Calm - N/A   Overcast
11:16 PM 55.4 °F 33.8 °F 44% 30.06 in 10.0 mi North 5.8 mph - N/A   Scattered Clouds
11:36 PM 59.0 °F 32.0 °F 36% 30.06 in 10.0 mi NNW 3.5 mph - N/A   Mostly Cloudy
11:55 PM 53.6 °F 32.0 °F 44% 30.07 in 10.0 mi North 5.8 mph - N/A   Scattered Clouds